Stations météo

Publicité
Antwerpen, Belgique (6450): Température de l'air & dewpoint: 20.05.2019 18:00:00 - 26.05.2019 18:00:00 (CEST)Antwerpen, Belgique (6450): Vitesse du vent & gusts: 20.05.2019 18:00:00 - 26.05.2019 18:00:00 (CEST)Antwerpen, Belgique (6450): Direction du vent: 20.05.2019 18:00:00 - 26.05.2019 18:00:00 (CEST)Antwerpen, Belgique (6450): reduced air pressure: 20.05.2019 18:00:00 - 26.05.2019 18:00:00 (CEST)Antwerpen, Belgique (6450): visibility: 20.05.2019 18:00:00 - 26.05.2019 18:00:00 (CEST)
Date & Time tt [°C] td [°C] ff [km/h] ff [knt] fx [km/h] fx [knt] dd ppp [hPa] vv [km]
26.05.2019 18:00:00 18,9 12,1 26 14 40 21 WSW 1012,9 10
26.05.2019 17:00:00 20,1 11,8 28 15 - - WSW 1013,2 10
26.05.2019 16:00:00 20,4 11,7 26 14 40 21 SW 1013,4 10
26.05.2019 15:00:00 20,8 11,2 21 11 40 21 WSW 1013,6 10
26.05.2019 14:00:00 20,8 12,0 24 13 - - WSW 1014,0 10
26.05.2019 13:00:00 19,8 12,3 21 11 32 18 WSW 1014,5 10
26.05.2019 12:00:00 18,0 12,7 16 9 29 16 SW 1014,9 10
26.05.2019 11:00:00 15,9 12,2 13 7 - - SW 1015,3 10
26.05.2019 10:00:00 14,3 11,3 13 7 29 16 SSW 1015,5 10
26.05.2019 09:00:00 13,2 10,9 16 9 25 14 SW 1015,4 10
26.05.2019 08:00:00 12,7 10,7 13 7 - - SW 1015,4 10
26.05.2019 07:00:00 11,4 9,9 9 5 14 8 SW 1015,7 9
26.05.2019 06:00:00 11,1 9,3 9 5 11 6 SSW 1015,8 9
26.05.2019 05:00:00 11,3 8,7 4 2 - - - 1016,3 9
26.05.2019 04:00:00 11,7 8,7 9 5 14 8 SW 1016,7 10
26.05.2019 03:00:00 9,6 7,6 4 2 7 4 - 1017,1 5
26.05.2019 02:00:00 8,9 7,8 2 1 - - - 1017,5 8
26.05.2019 01:00:00 9,0 7,9 4 2 4 2 SSW 1017,9 10
26.05.2019 00:00:00 13,5 8,8 4 2 14 8 - 1018,4 10
25.05.2019 23:00:00 14,2 9,6 11 6 - - W 1018,5 10
25.05.2019 22:00:00 15,7 10,5 15 8 18 10 WNW 1018,0 10
25.05.2019 21:00:00 16,8 9,2 13 7 22 12 WNW 1017,6 10
25.05.2019 20:00:00 17,6 9,2 16 9 - - WNW 1017,5 10
25.05.2019 19:00:00 18,3 10,3 13 7 22 12 NNW 1017,5 10
25.05.2019 18:00:00 18,5 11,9 5 3 14 8 - 1017,5 10
25.05.2019 17:00:00 16,7 10,5 11 6 - - WNW 1017,9 10
25.05.2019 16:00:00 17,4 9,7 4 2 14 8 - 1018,0 10
25.05.2019 15:00:00 17,2 9,4 5 3 14 8 - 1018,3 10
25.05.2019 14:00:00 16,3 10,9 4 2 - - - 1018,8 10
25.05.2019 13:00:00 15,2 11,2 2 1 11 6 - 1019,0 10
25.05.2019 12:00:00 14,2 10,8 8 4 18 10 SE 1018,9 10
25.05.2019 11:00:00 12,3 9,3 4 2 - - - 1019,1 10
25.05.2019 10:00:00 12,6 8,9 4 2 11 6 - 1019,1 10
25.05.2019 09:00:00 11,9 8,8 5 3 11 6 E 1018,4 10
25.05.2019 08:00:00 10,8 9,0 5 3 - - ESE 1018,1 10
25.05.2019 07:00:00 10,5 8,1 2 1 7 4 - 1018,0 10
25.05.2019 06:00:00 8,7 7,8 2 1 7 4 - 1017,5 7
25.05.2019 05:00:00 8,4 6,6 5 3 - - ENE 1017,3 10
25.05.2019 04:00:00 9,8 7,1 5 3 11 6 NNE 1017,5 10
25.05.2019 03:00:00 9,5 6,2 4 2 14 8 NE 1017,6 10
25.05.2019 02:00:00 11,4 7,0 9 5 - - N 1017,6 10
25.05.2019 01:00:00 12,4 5,9 9 5 14 8 N 1017,7 10
25.05.2019 00:00:00 14,1 6,8 9 5 14 8 NW 1017,5 10
24.05.2019 23:00:00 14,9 6,4 8 4 - - NNW 1017,2 10
24.05.2019 22:00:00 15,2 7,1 15 8 29 16 NNW 1017,1 10
24.05.2019 21:00:00 16,3 8,6 15 8 36 19 NNW 1016,7 10
24.05.2019 20:00:00 18,1 6,0 18 10 - - N 1016,2 10
24.05.2019 19:00:00 18,6 6,1 22 12 40 21 NNW 1016,1 10
24.05.2019 18:00:00 19,1 3,3 28 15 40 21 NW 1016,1 10
24.05.2019 17:00:00 20,6 6,9 24 13 - - NNW 1016,0 10
24.05.2019 16:00:00 21,0 9,2 21 11 32 18 NW 1016,0 10
24.05.2019 15:00:00 22,4 4,8 16 9 32 18 NNW 1015,9 10
24.05.2019 14:00:00 21,8 3,8 15 8 - - WNW 1015,8 10
24.05.2019 13:00:00 21,5 4,4 15 8 25 14 W 1015,8 10
24.05.2019 12:00:00 20,3 5,4 11 6 22 12 W 1015,8 10
24.05.2019 11:00:00 19,2 4,7 5 3 - - W 1015,9 10
24.05.2019 10:00:00 17,5 5,2 11 6 18 10 W 1016,0 10
24.05.2019 09:00:00 17,2 4,2 9 5 14 8 W 1015,8 10
24.05.2019 08:00:00 15,7 6,2 11 6 - - W 1015,9 10
24.05.2019 07:00:00 13,9 8,5 5 3 7 4 WSW 1015,6 10
24.05.2019 06:00:00 11,3 7,9 5 3 7 4 WSW 1015,2 10
24.05.2019 05:00:00 11,8 8,1 4 2 - - SSW 1015,2 10
24.05.2019 04:00:00 12,0 8,4 4 2 7 4 ESE 1015,1 10
24.05.2019 03:00:00 12,2 9,0 4 2 11 6 S 1015,4 10
24.05.2019 02:00:00 12,7 8,8 5 3 - - SSE 1015,7 10
24.05.2019 01:00:00 16,0 8,8 5 3 7 4 ESE 1016,0 10
24.05.2019 00:00:00 16,8 9,7 4 2 7 4 S 1016,2 10
23.05.2019 23:00:00 17,3 8,5 5 3 - - SSE 1016,2 10
23.05.2019 22:00:00 18,2 9,2 5 3 7 4 SE 1016,3 10
23.05.2019 21:00:00 19,2 9,6 5 3 7 4 SE 1016,2 10
23.05.2019 20:00:00 20,1 9,6 5 3 - - ESE 1016,3 10
23.05.2019 19:00:00 21,5 7,0 5 3 14 8 ESE 1016,5 10
23.05.2019 18:00:00 21,5 6,1 5 3 22 12 NE 1017,0 10
23.05.2019 17:00:00 21,1 6,5 13 7 - - NW 1017,4 10
23.05.2019 16:00:00 21,0 5,2 15 8 32 18 WNW 1017,6 10
23.05.2019 15:00:00 21,4 3,7 15 8 32 18 W 1017,7 10
23.05.2019 14:00:00 20,9 2,8 16 9 - - W 1018,1 10
23.05.2019 13:00:00 19,4 2,6 15 8 36 19 W 1018,5 10
23.05.2019 12:00:00 19,7 4,9 16 9 29 16 SW 1018,7 10
23.05.2019 11:00:00 18,0 7,1 11 6 - - W 1018,9 30
23.05.2019 10:00:00 16,7 7,6 13 7 18 10 W 1019,1 10
23.05.2019 09:00:00 15,1 6,6 11 6 22 12 SW 1018,9 10
23.05.2019 08:00:00 14,0 6,2 5 3 - - SSE 1018,9 10
23.05.2019 07:00:00 9,7 7,6 4 2 7 4 SE 1018,6 10
23.05.2019 06:00:00 7,9 6,5 4 2 7 4 SE 1018,8 10
23.05.2019 05:00:00 7,8 7,0 2 1 - - - 1019,2 10
23.05.2019 04:00:00 9,7 6,4 2 1 4 2 E 1019,6 10
23.05.2019 03:00:00 8,1 6,2 2 1 4 2 - 1019,8 10
23.05.2019 02:00:00 10,2 6,6 2 1 - - SE 1020,1 10
23.05.2019 01:00:00 9,8 6,5 4 2 4 2 SSE 1020,1 10
23.05.2019 00:00:00 10,9 5,9 5 3 4 2 SSE 1020,3 10
22.05.2019 23:00:00 14,2 3,6 2 1 - - S 1020,5 10
22.05.2019 22:00:00 15,4 3,1 8 4 14 8 NNE 1020,3 10
22.05.2019 21:00:00 17,1 3,2 9 5 18 10 NNW 1020,1 10
22.05.2019 20:00:00 17,0 4,4 11 6 - - NNW 1020,1 10
22.05.2019 19:00:00 18,7 3,6 16 9 29 16 NW 1020,0 10
22.05.2019 18:00:00 18,8 3,9 18 10 32 18 NW 1020,2 10
22.05.2019 17:00:00 19,4 6,7 21 11 - - NW 1020,3 10
22.05.2019 16:00:00 19,3 -0,8 26 14 40 21 WNW 1020,1 10
22.05.2019 15:00:00 20,4 6,1 18 10 32 18 WNW 1019,9 10
22.05.2019 14:00:00 18,9 6,8 8 4 - - NW 1020,2 10
22.05.2019 13:00:00 17,3 8,9 11 6 22 12 WSW 1020,4 20
22.05.2019 12:00:00 16,2 7,7 5 3 22 12 - 1020,6 10
22.05.2019 11:00:00 15,2 8,7 5 3 - - - 1020,5 10
22.05.2019 10:00:00 13,5 9,0 8 4 14 8 SSE 1020,5 10
22.05.2019 09:00:00 12,4 9,1 5 3 11 6 SSE 1020,5 10
22.05.2019 08:00:00 10,7 8,4 4 2 - - - 1020,3 10
22.05.2019 07:00:00 10,9 8,2 5 3 11 6 NNE 1020,2 10
22.05.2019 06:00:00 10,6 8,0 8 4 14 8 N 1020,1 10
22.05.2019 05:00:00 10,6 8,0 9 5 - - N 1020,0 10
22.05.2019 04:00:00 10,5 8,2 8 4 14 8 N 1019,8 10
22.05.2019 03:00:00 10,7 8,8 4 2 14 8 - 1019,6 10
22.05.2019 02:00:00 10,3 8,7 8 4 - - N 1019,4 10
22.05.2019 01:00:00 10,8 9,1 11 6 18 10 WNW 1019,4 10
22.05.2019 00:00:00 11,3 9,2 13 7 22 12 WNW 1019,3 10
21.05.2019 23:00:00 11,4 8,9 15 8 - - NW 1019,2 10
21.05.2019 22:00:00 11,9 9,1 16 9 29 16 NW 1019,0 10
21.05.2019 21:00:00 12,2 9,2 21 11 32 18 NW 1018,6 10
21.05.2019 20:00:00 12,7 9,3 22 12 - - NW 1018,2 10
21.05.2019 19:00:00 13,7 9,1 21 11 36 19 NNW 1018,0 10
21.05.2019 18:00:00 14,3 9,3 24 13 36 19 NNW 1017,6 10
21.05.2019 17:00:00 14,6 8,8 22 12 - - NW 1017,4 10
21.05.2019 16:00:00 15,4 9,2 29 16 47 25 NW 1017,1 10
21.05.2019 15:00:00 14,9 8,7 29 16 47 25 NW 1016,8 10
21.05.2019 14:00:00 14,7 8,3 28 15 - - NNW 1016,7 10
21.05.2019 13:00:00 14,0 8,7 26 14 43 23 NW 1016,2 10
21.05.2019 12:00:00 13,0 9,4 28 15 43 23 NW 1015,9 10
21.05.2019 11:00:00 12,6 8,6 29 16 - - NW 1015,4 10
21.05.2019 10:00:00 11,9 8,8 22 12 36 19 NNW 1015,3 10
21.05.2019 09:00:00 11,3 8,8 22 12 36 19 NW 1014,8 10
21.05.2019 08:00:00 10,9 8,6 24 13 - - NW 1014,1 10
21.05.2019 07:00:00 10,5 8,7 18 10 36 19 NW 1013,8 9
21.05.2019 06:00:00 10,4 9,1 21 11 32 18 NW 1013,7 7
21.05.2019 05:00:00 10,5 10,1 22 12 - - NW 1013,3 4,3
21.05.2019 04:00:00 10,7 10,1 22 12 36 19 NW 1013,1 3,4
21.05.2019 03:00:00 10,8 10,5 22 12 32 18 NW 1013,1 2,5
21.05.2019 02:00:00 10,8 10,4 21 11 - - NW 1012,9 2,6
21.05.2019 01:00:00 10,9 10,6 18 10 29 16 WNW 1012,8 2,4
21.05.2019 00:00:00 11,2 10,6 21 11 32 18 NW 1013,0 3,7
20.05.2019 23:00:00 11,2 10,5 22 12 - - NW 1012,8 4,0
20.05.2019 22:00:00 11,7 11,1 21 11 36 19 NW 1012,3 4,0
20.05.2019 21:00:00 12,0 11,4 16 9 29 16 NW 1011,7 4,0
20.05.2019 20:00:00 12,1 11,5 18 10 - - NW 1011,5 2,5
20.05.2019 19:00:00 12,3 10,9 18 10 32 18 NW 1011,3 7
20.05.2019 18:00:00 12,8 10,5 22 12 32 18 NW 1011,1 10

tt = Température de l'air
td = dewpoint
ff = Vitesse du vent
fx = gusts
dd = Direction du vent
ppp = reduced air pressure
vv = visibility

stations d'obs. à proximité